Data supplied by UK-AIR on 15/12/2011
All Data GMT hour ending 
Status: R =Ratified P=Provisional,P*=As supplied
,,Liverpool Queen's Drive Roadside,,,,,,,,,,,,,,,,,,,,,,,
Date,time,"Nitric oxide",status,unit,"Nitrogen dioxide",status,unit,"Nitrogen oxides as nitrogen dioxide",status,unit
 
01-01-2010,01:00,0,R,ugm-3,19,R,ugm-3,19,R,ugm-3
01-01-2010,02:00,1,R,ugm-3,27,R,ugm-3,29,R,ugm-3
01-01-2010,03:00,1,R,ugm-3,23,R,ugm-3,25,R,ugm-3
01-01-2010,04:00,1,R,ugm-3,17,R,ugm-3,19,R,ugm-3
01-01-2010,05:00,1,R,ugm-3,19,R,ugm-3,21,R,ugm-3
01-01-2010,06:00,1,R,ugm-3,13,R,ugm-3,15,R,ugm-3
01-01-2010,07:00,3,R,ugm-3,13,R,ugm-3,17,R,ugm-3
01-01-2010,08:00,6,R,ugm-3,17,R,ugm-3,27,R,ugm-3
01-01-2010,09:00,13,R,ugm-3,32,R,ugm-3,52,R,ugm-3
01-01-2010,10:00,20,R,ugm-3,59,R,ugm-3,90,R,ugm-3
01-01-2010,11:00,39,R,ugm-3,57,R,ugm-3,117,R,ugm-3
01-01-2010,12:00,23,R,ugm-3,48,R,ugm-3,82,R,ugm-3
01-01-2010,13:00,13,R,ugm-3,27,R,ugm-3,46,R,ugm-3
01-01-2010,14:00,14,R,ugm-3,23,R,ugm-3,44,R,ugm-3
01-01-2010,15:00,11,R,ugm-3,25,R,ugm-3,42,R,ugm-3
01-01-2010,16:00,18,R,ugm-3,38,R,ugm-3,65,R,ugm-3
01-01-2010,17:00,11,R,ugm-3,29,R,ugm-3,46,R,ugm-3
01-01-2010,18:00,13,R,ugm-3,38,R,ugm-3,57,R,ugm-3
01-01-2010,19:00,23,R,ugm-3,50,R,ugm-3,84,R,ugm-3
01-01-2010,20:00,16,R,ugm-3,40,R,ugm-3,65,R,ugm-3
01-01-2010,21:00,38,R,ugm-3,65,R,ugm-3,122,R,ugm-3
01-01-2010,22:00,21,R,ugm-3,52,R,ugm-3,84,R,ugm-3
01-01-2010,23:00,21,R,ugm-3,55,R,ugm-3,88,R,ugm-3
01-01-2010,24:00,30,R,ugm-3,65,R,ugm-3,111,R,ugm-3
02-01-2010,01:00,18,R,ugm-3,46,R,ugm-3,73,R,ugm-3
02-01-2010,02:00,6,R,ugm-3,25,R,ugm-3,34,R,ugm-3
02-01-2010,03:00,5,R,ugm-3,21,R,ugm-3,29,R,ugm-3
02-01-2010,04:00,5,R,ugm-3,29,R,ugm-3,36,R,ugm-3
02-01-2010,05:00,8,R,ugm-3,17,R,ugm-3,29,R,ugm-3
02-01-2010,06:00,8,R,ugm-3,23,R,ugm-3,34,R,ugm-3
02-01-2010,07:00,18,R,ugm-3,32,R,ugm-3,59,R,ugm-3
02-01-2010,08:00,16,R,ugm-3,29,R,ugm-3,53,R,ugm-3
02-01-2010,09:00,13,R,ugm-3,25,R,ugm-3,44,R,ugm-3
02-01-2010,10:00,15,R,ugm-3,27,R,ugm-3,50,R,ugm-3
02-01-2010,11:00,10,R,ugm-3,17,R,ugm-3,32,R,ugm-3
02-01-2010,12:00,15,R,ugm-3,25,R,ugm-3,48,R,ugm-3
02-01-2010,13:00,25,R,ugm-3,34,R,ugm-3,73,R,ugm-3
02-01-2010,14:00,24,R,ugm-3,34,R,ugm-3,71,R,ugm-3
02-01-2010,15:00,19,R,ugm-3,38,R,ugm-3,67,R,ugm-3
02-01-2010,16:00,19,R,ugm-3,48,R,ugm-3,76,R,ugm-3
02-01-2010,17:00,53,R,ugm-3,76,R,ugm-3,157,R,ugm-3
02-01-2010,18:00,4,R,ugm-3,42,R,ugm-3,48,R,ugm-3
02-01-2010,19:00,3,R,ugm-3,36,R,ugm-3,40,R,ugm-3
02-01-2010,20:00,1,R,ugm-3,29,R,ugm-3,31,R,ugm-3
02-01-2010,21:00,1,R,ugm-3,10,R,ugm-3,11,R,ugm-3
02-01-2010,22:00,1,R,ugm-3,4,R,ugm-3,6,R,ugm-3
02-01-2010,23:00,1,R,ugm-3,6,R,ugm-3,8,R,ugm-3
02-01-2010,24:00,1,R,ugm-3,6,R,ugm-3,8,R,ugm-3
03-01-2010,01:00,1,R,ugm-3,13,R,ugm-3,15,R,ugm-3
03-01-2010,02:00,1,R,ugm-3,10,R,ugm-3,11,R,ugm-3
03-01-2010,03:00,0,R,ugm-3,2,R,ugm-3,2,R,ugm-3
03-01-2010,04:00,0,R,ugm-3,4,R,ugm-3,4,R,ugm-3
03-01-2010,05:00,1,R,ugm-3,6,R,ugm-3,8,R,ugm-3
03-01-2010,06:00,0,R,ugm-3,15,R,ugm-3,15,R,ugm-3
03-01-2010,07:00,1,R,ugm-3,11,R,ugm-3,13,R,ugm-3
03-01-2010,08:00,1,R,ugm-3,6,R,ugm-3,8,R,ugm-3
03-01-2010,09:00,8,R,ugm-3,11,R,ugm-3,23,R,ugm-3
03-01-2010,10:00,14,R,ugm-3,17,R,ugm-3,38,R,ugm-3
03-01-2010,11:00,40,R,ugm-3,42,R,ugm-3,103,R,ugm-3
03-01-2010,12:00,21,R,ugm-3,29,R,ugm-3,61,R,ugm-3
03-01-2010,13:00,20,R,ugm-3,25,R,ugm-3,55,R,ugm-3
03-01-2010,14:00,14,R,ugm-3,21,R,ugm-3,42,R,ugm-3
03-01-2010,15:00,15,R,ugm-3,31,R,ugm-3,53,R,ugm-3
03-01-2010,16:00,19,R,ugm-3,38,R,ugm-3,67,R,ugm-3
03-01-2010,17:00,90,R,ugm-3,67,R,ugm-3,204,R,ugm-3
03-01-2010,18:00,86,R,ugm-3,65,R,ugm-3,197,R,ugm-3
03-01-2010,19:00,45,R,ugm-3,55,R,ugm-3,124,R,ugm-3
03-01-2010,20:00,46,R,ugm-3,32,R,ugm-3,103,R,ugm-3
03-01-2010,21:00,58,R,ugm-3,31,R,ugm-3,118,R,ugm-3
03-01-2010,22:00,74,R,ugm-3,42,R,ugm-3,155,R,ugm-3
03-01-2010,23:00,104,R,ugm-3,40,R,ugm-3,199,R,ugm-3
03-01-2010,24:00,115,R,ugm-3,40,R,ugm-3,216,R,ugm-3
04-01-2010,01:00,131,R,ugm-3,48,R,ugm-3,248,R,ugm-3
04-01-2010,02:00,73,R,ugm-3,31,R,ugm-3,141,R,ugm-3
04-01-2010,03:00,65,R,ugm-3,31,R,ugm-3,130,R,ugm-3
04-01-2010,04:00,45,R,ugm-3,25,R,ugm-3,94,R,ugm-3
04-01-2010,05:00,69,R,ugm-3,23,R,ugm-3,128,R,ugm-3
04-01-2010,06:00,86,R,ugm-3,25,R,ugm-3,157,R,ugm-3
04-01-2010,07:00,73,R,ugm-3,27,R,ugm-3,138,R,ugm-3
04-01-2010,08:00,120,R,ugm-3,38,R,ugm-3,222,R,ugm-3
04-01-2010,09:00,181,R,ugm-3,46,R,ugm-3,323,R,ugm-3
04-01-2010,10:00,268,R,ugm-3,65,R,ugm-3,474,R,ugm-3
04-01-2010,11:00,255,R,ugm-3,99,R,ugm-3,489,R,ugm-3
04-01-2010,12:00,205,R,ugm-3,92,R,ugm-3,405,R,ugm-3
04-01-2010,13:00,71,R,ugm-3,53,R,ugm-3,162,R,ugm-3
04-01-2010,14:00,65,R,ugm-3,57,R,ugm-3,157,R,ugm-3
04-01-2010,15:00,53,R,ugm-3,52,R,ugm-3,132,R,ugm-3
04-01-2010,16:00,58,R,ugm-3,61,R,ugm-3,149,R,ugm-3
04-01-2010,17:00,53,R,ugm-3,65,R,ugm-3,145,R,ugm-3
04-01-2010,18:00,43,R,ugm-3,63,R,ugm-3,128,R,ugm-3
04-01-2010,19:00,18,R,ugm-3,42,R,ugm-3,69,R,ugm-3
04-01-2010,20:00,14,R,ugm-3,34,R,ugm-3,55,R,ugm-3
04-01-2010,21:00,8,R,ugm-3,29,R,ugm-3,40,R,ugm-3
04-01-2010,22:00,4,R,ugm-3,21,R,ugm-3,27,R,ugm-3
04-01-2010,23:00,3,R,ugm-3,23,R,ugm-3,27,R,ugm-3
04-01-2010,24:00,3,R,ugm-3,19,R,ugm-3,23,R,ugm-3
05-01-2010,01:00,5,R,ugm-3,11,R,ugm-3,19,R,ugm-3
05-01-2010,02:00,1,R,ugm-3,11,R,ugm-3,13,R,ugm-3
05-01-2010,03:00,1,R,ugm-3,6,R,ugm-3,8,R,ugm-3
05-01-2010,04:00,3,R,ugm-3,8,R,ugm-3,11,R,ugm-3
05-01-2010,05:00,3,R,ugm-3,21,R,ugm-3,25,R,ugm-3
05-01-2010,06:00,10,R,ugm-3,32,R,ugm-3,48,R,ugm-3
05-01-2010,07:00,20,R,ugm-3,40,R,ugm-3,71,R,ugm-3
05-01-2010,08:00,85,R,ugm-3,80,R,ugm-3,210,R,ugm-3
05-01-2010,09:00,23,R,ugm-3,50,R,ugm-3,84,R,ugm-3
05-01-2010,10:00,13,R,ugm-3,46,R,ugm-3,65,R,ugm-3
05-01-2010,11:00,10,R,ugm-3,40,R,ugm-3,55,R,ugm-3
05-01-2010,12:00,3,R,ugm-3,29,R,ugm-3,32,R,ugm-3
05-01-2010,13:00,4,R,ugm-3,31,R,ugm-3,36,R,ugm-3
05-01-2010,14:00,4,R,ugm-3,23,R,ugm-3,29,R,ugm-3
05-01-2010,15:00,13,R,ugm-3,38,R,ugm-3,57,R,ugm-3
05-01-2010,16:00,11,R,ugm-3,48,R,ugm-3,65,R,ugm-3
05-01-2010,17:00,6,R,ugm-3,34,R,ugm-3,44,R,ugm-3
05-01-2010,18:00,4,R,ugm-3,31,R,ugm-3,36,R,ugm-3
05-01-2010,19:00,3,R,ugm-3,29,R,ugm-3,32,R,ugm-3
05-01-2010,20:00,1,R,ugm-3,25,R,ugm-3,27,R,ugm-3
05-01-2010,21:00,0,R,ugm-3,21,R,ugm-3,21,R,ugm-3
05-01-2010,22:00,1,R,ugm-3,27,R,ugm-3,29,R,ugm-3
05-01-2010,23:00,0,R,ugm-3,23,R,ugm-3,23,R,ugm-3
05-01-2010,24:00,0,R,ugm-3,15,R,ugm-3,15,R,ugm-3
06-01-2010,01:00,1,R,ugm-3,11,R,ugm-3,13,R,ugm-3
06-01-2010,02:00,1,R,ugm-3,8,R,ugm-3,10,R,ugm-3
06-01-2010,03:00,1,R,ugm-3,4,R,ugm-3,6,R,ugm-3
06-01-2010,04:00,1,R,ugm-3,4,R,ugm-3,6,R,ugm-3
06-01-2010,05:00,1,R,ugm-3,4,R,ugm-3,6,R,ugm-3
06-01-2010,06:00,1,R,ugm-3,4,R,ugm-3,6,R,ugm-3
06-01-2010,07:00,3,R,ugm-3,13,R,ugm-3,17,R,ugm-3
06-01-2010,08:00,3,R,ugm-3,23,R,ugm-3,27,R,ugm-3
06-01-2010,09:00,5,R,ugm-3,42,R,ugm-3,50,R,ugm-3
06-01-2010,10:00,9,R,ugm-3,46,R,ugm-3,59,R,ugm-3
06-01-2010,11:00,9,R,ugm-3,25,R,ugm-3,38,R,ugm-3
06-01-2010,12:00,8,R,ugm-3,23,R,ugm-3,34,R,ugm-3
06-01-2010,13:00,8,R,ugm-3,19,R,ugm-3,31,R,ugm-3
06-01-2010,14:00,8,R,ugm-3,17,R,ugm-3,29,R,ugm-3
06-01-2010,15:00,5,R,ugm-3,17,R,ugm-3,25,R,ugm-3
06-01-2010,16:00,5,R,ugm-3,23,R,ugm-3,31,R,ugm-3
06-01-2010,17:00,13,R,ugm-3,55,R,ugm-3,74,R,ugm-3
06-01-2010,18:00,9,R,ugm-3,55,R,ugm-3,69,R,ugm-3
06-01-2010,19:00,11,R,ugm-3,55,R,ugm-3,73,R,ugm-3
06-01-2010,20:00,13,R,ugm-3,57,R,ugm-3,76,R,ugm-3
06-01-2010,21:00,8,R,ugm-3,40,R,ugm-3,52,R,ugm-3
06-01-2010,22:00,3,R,ugm-3,31,R,ugm-3,34,R,ugm-3
06-01-2010,23:00,3,R,ugm-3,21,R,ugm-3,25,R,ugm-3
06-01-2010,24:00,5,R,ugm-3,13,R,ugm-3,21,R,ugm-3
07-01-2010,01:00,3,R,ugm-3,17,R,ugm-3,21,R,ugm-3
07-01-2010,02:00,0,R,ugm-3,4,R,ugm-3,4,R,ugm-3
07-01-2010,03:00,1,R,ugm-3,4,R,ugm-3,6,R,ugm-3
07-01-2010,04:00,1,R,ugm-3,6,R,ugm-3,8,R,ugm-3
07-01-2010,05:00,15,R,ugm-3,15,R,ugm-3,38,R,ugm-3
07-01-2010,06:00,16,R,ugm-3,17,R,ugm-3,42,R,ugm-3
07-01-2010,07:00,44,R,ugm-3,27,R,ugm-3,94,R,ugm-3
07-01-2010,08:00,24,R,ugm-3,23,R,ugm-3,59,R,ugm-3
07-01-2010,09:00,31,R,ugm-3,29,R,ugm-3,76,R,ugm-3
07-01-2010,10:00,125,R,ugm-3,63,R,ugm-3,254,R,ugm-3
07-01-2010,11:00,70,R,ugm-3,69,R,ugm-3,176,R,ugm-3
07-01-2010,12:00,44,R,ugm-3,48,R,ugm-3,115,R,ugm-3
07-01-2010,13:00,21,R,ugm-3,36,R,ugm-3,69,R,ugm-3
07-01-2010,14:00,13,R,ugm-3,34,R,ugm-3,53,R,ugm-3
07-01-2010,15:00,30,R,ugm-3,44,R,ugm-3,90,R,ugm-3
07-01-2010,16:00,23,R,ugm-3,57,R,ugm-3,92,R,ugm-3
07-01-2010,17:00,136,R,ugm-3,101,R,ugm-3,309,R,ugm-3
07-01-2010,18:00,214,R,ugm-3,115,R,ugm-3,441,R,ugm-3
07-01-2010,19:00,166,R,ugm-3,109,R,ugm-3,363,R,ugm-3
07-01-2010,20:00,61,R,ugm-3,90,R,ugm-3,183,R,ugm-3
07-01-2010,21:00,208,R,ugm-3,113,R,ugm-3,430,R,ugm-3
07-01-2010,22:00,224,R,ugm-3,126,R,ugm-3,468,R,ugm-3
07-01-2010,23:00,269,R,ugm-3,124,R,ugm-3,535,R,ugm-3
07-01-2010,24:00,211,R,ugm-3,103,R,ugm-3,426,R,ugm-3
08-01-2010,01:00,256,R,ugm-3,117,R,ugm-3,508,R,ugm-3
08-01-2010,02:00,124,R,ugm-3,78,R,ugm-3,267,R,ugm-3
08-01-2010,03:00,173,R,ugm-3,97,R,ugm-3,361,R,ugm-3
08-01-2010,04:00,140,R,ugm-3,97,R,ugm-3,311,R,ugm-3
08-01-2010,05:00,120,R,ugm-3,92,R,ugm-3,275,R,ugm-3
08-01-2010,06:00,79,R,ugm-3,86,R,ugm-3,206,R,ugm-3
08-01-2010,07:00,75,R,ugm-3,80,R,ugm-3,195,R,ugm-3
08-01-2010,08:00,80,R,ugm-3,88,R,ugm-3,210,R,ugm-3
08-01-2010,09:00,49,R,ugm-3,65,R,ugm-3,139,R,ugm-3
08-01-2010,10:00,36,R,ugm-3,67,R,ugm-3,122,R,ugm-3
08-01-2010,11:00,31,R,ugm-3,57,R,ugm-3,105,R,ugm-3
08-01-2010,12:00,30,R,ugm-3,52,R,ugm-3,97,R,ugm-3
08-01-2010,13:00,23,R,ugm-3,46,R,ugm-3,80,R,ugm-3
08-01-2010,14:00,18,R,ugm-3,46,R,ugm-3,73,R,ugm-3
08-01-2010,15:00,15,R,ugm-3,48,R,ugm-3,71,R,ugm-3
08-01-2010,16:00,15,R,ugm-3,61,R,ugm-3,84,R,ugm-3
08-01-2010,17:00,11,R,ugm-3,63,R,ugm-3,80,R,ugm-3
08-01-2010,18:00,15,R,ugm-3,71,R,ugm-3,94,R,ugm-3
08-01-2010,19:00,25,R,ugm-3,82,R,ugm-3,120,R,ugm-3
08-01-2010,20:00,45,R,ugm-3,84,R,ugm-3,153,R,ugm-3
08-01-2010,21:00,26,R,ugm-3,76,R,ugm-3,117,R,ugm-3
08-01-2010,22:00,38,R,ugm-3,86,R,ugm-3,143,R,ugm-3
08-01-2010,23:00,6,R,ugm-3,63,R,ugm-3,73,R,ugm-3
08-01-2010,24:00,1,R,ugm-3,34,R,ugm-3,36,R,ugm-3
09-01-2010,01:00,3,R,ugm-3,29,R,ugm-3,32,R,ugm-3
09-01-2010,02:00,1,R,ugm-3,29,R,ugm-3,31,R,ugm-3
09-01-2010,03:00,1,R,ugm-3,29,R,ugm-3,31,R,ugm-3
09-01-2010,04:00,1,R,ugm-3,17,R,ugm-3,19,R,ugm-3
09-01-2010,05:00,1,R,ugm-3,21,R,ugm-3,23,R,ugm-3
09-01-2010,06:00,3,R,ugm-3,25,R,ugm-3,29,R,ugm-3
09-01-2010,07:00,1,R,ugm-3,31,R,ugm-3,32,R,ugm-3
09-01-2010,08:00,3,R,ugm-3,31,R,ugm-3,34,R,ugm-3
09-01-2010,09:00,4,R,ugm-3,32,R,ugm-3,38,R,ugm-3
09-01-2010,10:00,6,R,ugm-3,27,R,ugm-3,36,R,ugm-3
09-01-2010,11:00,11,R,ugm-3,23,R,ugm-3,40,R,ugm-3
09-01-2010,12:00,10,R,ugm-3,19,R,ugm-3,34,R,ugm-3
09-01-2010,13:00,11,R,ugm-3,17,R,ugm-3,34,R,ugm-3
09-01-2010,14:00,8,R,ugm-3,11,R,ugm-3,23,R,ugm-3
09-01-2010,15:00,8,R,ugm-3,21,R,ugm-3,32,R,ugm-3
09-01-2010,16:00,8,R,ugm-3,27,R,ugm-3,38,R,ugm-3
09-01-2010,17:00,8,R,ugm-3,42,R,ugm-3,53,R,ugm-3
09-01-2010,18:00,8,R,ugm-3,46,R,ugm-3,57,R,ugm-3
09-01-2010,19:00,6,R,ugm-3,46,R,ugm-3,55,R,ugm-3
09-01-2010,20:00,5,R,ugm-3,34,R,ugm-3,42,R,ugm-3
09-01-2010,21:00,4,R,ugm-3,34,R,ugm-3,40,R,ugm-3
09-01-2010,22:00,3,R,ugm-3,31,R,ugm-3,34,R,ugm-3
09-01-2010,23:00,3,R,ugm-3,15,R,ugm-3,19,R,ugm-3
09-01-2010,24:00,1,R,ugm-3,11,R,ugm-3,13,R,ugm-3
10-01-2010,01:00,0,R,ugm-3,15,R,ugm-3,15,R,ugm-3
10-01-2010,02:00,0,R,ugm-3,13,R,ugm-3,13,R,ugm-3
10-01-2010,03:00,0,R,ugm-3,10,R,ugm-3,10,R,ugm-3
10-01-2010,04:00,0,R,ugm-3,11,R,ugm-3,11,R,ugm-3
10-01-2010,05:00,0,R,ugm-3,10,R,ugm-3,10,R,ugm-3
10-01-2010,06:00,0,R,ugm-3,6,R,ugm-3,6,R,ugm-3
10-01-2010,07:00,0,R,ugm-3,10,R,ugm-3,10,R,ugm-3
10-01-2010,08:00,1,R,ugm-3,15,R,ugm-3,17,R,ugm-3
10-01-2010,09:00,1,R,ugm-3,13,R,ugm-3,15,R,ugm-3
10-01-2010,10:00,1,R,ugm-3,17,R,ugm-3,19,R,ugm-3
10-01-2010,11:00,1,R,ugm-3,8,R,ugm-3,10,R,ugm-3
10-01-2010,12:00,1,R,ugm-3,6,R,ugm-3,8,R,ugm-3
10-01-2010,13:00,1,R,ugm-3,11,R,ugm-3,13,R,ugm-3
10-01-2010,14:00,1,R,ugm-3,11,R,ugm-3,13,R,ugm-3
10-01-2010,15:00,1,R,ugm-3,8,R,ugm-3,10,R,ugm-3
10-01-2010,16:00,1,R,ugm-3,10,R,ugm-3,11,R,ugm-3
10-01-2010,17:00,0,R,ugm-3,11,R,ugm-3,11,R,ugm-3
10-01-2010,18:00,0,R,ugm-3,11,R,ugm-3,11,R,ugm-3
10-01-2010,19:00,0,R,ugm-3,10,R,ugm-3,10,R,ugm-3
10-01-2010,20:00,0,R,ugm-3,10,R,ugm-3,10,R,ugm-3
10-01-2010,21:00,0,R,ugm-3,11,R,ugm-3,11,R,ugm-3
10-01-2010,22:00,0,R,ugm-3,11,R,ugm-3,11,R,ugm-3
10-01-2010,23:00,0,R,ugm-3,15,R,ugm-3,15,R,ugm-3
10-01-2010,24:00,0,R,ugm-3,13,R,ugm-3,13,R,ugm-3
11-01-2010,01:00,1,R,ugm-3,8,R,ugm-3,10,R,ugm-3
11-01-2010,02:00,1,R,ugm-3,6,R,ugm-3,8,R,ugm-3
11-01-2010,03:00,1,R,ugm-3,4,R,ugm-3,6,R,ugm-3
11-01-2010,04:00,0,R,ugm-3,6,R,ugm-3,6,R,ugm-3
11-01-2010,05:00,1,R,ugm-3,8,R,ugm-3,10,R,ugm-3
11-01-2010,06:00,1,R,ugm-3,11,R,ugm-3,13,R,ugm-3
11-01-2010,07:00,1,R,ugm-3,27,R,ugm-3,29,R,ugm-3
11-01-2010,08:00,5,R,ugm-3,34,R,ugm-3,42,R,ugm-3
11-01-2010,09:00,18,R,ugm-3,52,R,ugm-3,78,R,ugm-3
11-01-2010,10:00,38,R,ugm-3,69,R,ugm-3,126,R,ugm-3
11-01-2010,11:00,38,R,ugm-3,65,R,ugm-3,122,R,ugm-3
11-01-2010,12:00,38,R,ugm-3,65,R,ugm-3,122,R,ugm-3
11-01-2010,13:00,31,R,ugm-3,61,R,ugm-3,109,R,ugm-3
11-01-2010,14:00,33,R,ugm-3,59,R,ugm-3,109,R,ugm-3
11-01-2010,15:00,53,R,ugm-3,67,R,ugm-3,147,R,ugm-3
11-01-2010,16:00,54,R,ugm-3,69,R,ugm-3,151,R,ugm-3
11-01-2010,17:00,59,R,ugm-3,74,R,ugm-3,164,R,ugm-3
11-01-2010,18:00,98,R,ugm-3,84,R,ugm-3,233,R,ugm-3
11-01-2010,19:00,68,R,ugm-3,76,R,ugm-3,180,R,ugm-3
11-01-2010,20:00,44,R,ugm-3,69,R,ugm-3,136,R,ugm-3
11-01-2010,21:00,43,R,ugm-3,61,R,ugm-3,126,R,ugm-3
11-01-2010,22:00,19,R,ugm-3,52,R,ugm-3,80,R,ugm-3
11-01-2010,23:00,13,R,ugm-3,50,R,ugm-3,69,R,ugm-3
11-01-2010,24:00,9,R,ugm-3,31,R,ugm-3,44,R,ugm-3
12-01-2010,01:00,8,R,ugm-3,25,R,ugm-3,36,R,ugm-3
12-01-2010,02:00,3,R,ugm-3,13,R,ugm-3,17,R,ugm-3
12-01-2010,03:00,3,R,ugm-3,17,R,ugm-3,21,R,ugm-3
12-01-2010,04:00,3,R,ugm-3,17,R,ugm-3,21,R,ugm-3
12-01-2010,05:00,3,R,ugm-3,15,R,ugm-3,19,R,ugm-3
12-01-2010,06:00,3,R,ugm-3,13,R,ugm-3,17,R,ugm-3
12-01-2010,07:00,8,R,ugm-3,21,R,ugm-3,32,R,ugm-3
12-01-2010,08:00,14,R,ugm-3,31,R,ugm-3,52,R,ugm-3
12-01-2010,09:00,19,R,ugm-3,36,R,ugm-3,65,R,ugm-3
12-01-2010,10:00,15,R,ugm-3,36,R,ugm-3,59,R,ugm-3
12-01-2010,11:00,20,R,ugm-3,31,R,ugm-3,61,R,ugm-3
12-01-2010,12:00,13,R,ugm-3,27,R,ugm-3,46,R,ugm-3
12-01-2010,13:00,14,R,ugm-3,27,R,ugm-3,48,R,ugm-3
12-01-2010,14:00,18,R,ugm-3,34,R,ugm-3,61,R,ugm-3
12-01-2010,15:00,18,R,ugm-3,34,R,ugm-3,61,R,ugm-3
12-01-2010,16:00,15,R,ugm-3,36,R,ugm-3,59,R,ugm-3
12-01-2010,17:00,13,R,ugm-3,42,R,ugm-3,61,R,ugm-3
12-01-2010,18:00,15,R,ugm-3,46,R,ugm-3,69,R,ugm-3
12-01-2010,19:00,14,R,ugm-3,40,R,ugm-3,61,R,ugm-3
12-01-2010,20:00,14,R,ugm-3,32,R,ugm-3,53,R,ugm-3
12-01-2010,21:00,8,R,ugm-3,27,R,ugm-3,38,R,ugm-3
12-01-2010,22:00,6,R,ugm-3,29,R,ugm-3,38,R,ugm-3
12-01-2010,23:00,6,R,ugm-3,32,R,ugm-3,42,R,ugm-3
12-01-2010,24:00,4,R,ugm-3,34,R,ugm-3,40,R,ugm-3
13-01-2010,01:00,1,R,ugm-3,31,R,ugm-3,32,R,ugm-3
13-01-2010,02:00,1,R,ugm-3,13,R,ugm-3,15,R,ugm-3
13-01-2010,03:00,1,R,ugm-3,13,R,ugm-3,15,R,ugm-3
13-01-2010,04:00,1,R,ugm-3,19,R,ugm-3,21,R,ugm-3
13-01-2010,05:00,4,R,ugm-3,23,R,ugm-3,29,R,ugm-3
13-01-2010,06:00,9,R,ugm-3,34,R,ugm-3,48,R,ugm-3
13-01-2010,07:00,19,R,ugm-3,44,R,ugm-3,73,R,ugm-3
13-01-2010,08:00,29,R,ugm-3,46,R,ugm-3,90,R,ugm-3
13-01-2010,09:00,40,R,ugm-3,48,R,ugm-3,109,R,ugm-3
13-01-2010,10:00,49,R,ugm-3,46,R,ugm-3,120,R,ugm-3
13-01-2010,11:00,51,R,ugm-3,46,R,ugm-3,124,R,ugm-3
13-01-2010,12:00,54,R,ugm-3,42,R,ugm-3,124,R,ugm-3
13-01-2010,13:00,50,R,ugm-3,40,R,ugm-3,117,R,ugm-3
13-01-2010,14:00,45,R,ugm-3,38,R,ugm-3,107,R,ugm-3
13-01-2010,15:00,50,R,ugm-3,42,R,ugm-3,118,R,ugm-3
13-01-2010,16:00,51,R,ugm-3,44,R,ugm-3,122,R,ugm-3
13-01-2010,17:00,50,R,ugm-3,46,R,ugm-3,122,R,ugm-3
13-01-2010,18:00,61,R,ugm-3,52,R,ugm-3,145,R,ugm-3
13-01-2010,19:00,58,R,ugm-3,52,R,ugm-3,139,R,ugm-3
13-01-2010,20:00,60,R,ugm-3,53,R,ugm-3,145,R,ugm-3
13-01-2010,21:00,53,R,ugm-3,50,R,ugm-3,130,R,ugm-3
13-01-2010,22:00,43,R,ugm-3,48,R,ugm-3,113,R,ugm-3
13-01-2010,23:00,43,R,ugm-3,48,R,ugm-3,113,R,ugm-3
13-01-2010,24:00,44,R,ugm-3,48,R,ugm-3,115,R,ugm-3
14-01-2010,01:00,30,R,ugm-3,48,R,ugm-3,94,R,ugm-3
14-01-2010,02:00,30,R,ugm-3,44,R,ugm-3,90,R,ugm-3
14-01-2010,03:00,25,R,ugm-3,46,R,ugm-3,84,R,ugm-3
14-01-2010,04:00,26,R,ugm-3,44,R,ugm-3,84,R,ugm-3
14-01-2010,05:00,31,R,ugm-3,44,R,ugm-3,92,R,ugm-3
14-01-2010,06:00,45,R,ugm-3,44,R,ugm-3,113,R,ugm-3
14-01-2010,07:00,69,R,ugm-3,48,R,ugm-3,153,R,ugm-3
14-01-2010,08:00,103,R,ugm-3,61,R,ugm-3,218,R,ugm-3
14-01-2010,09:00,105,R,ugm-3,59,R,ugm-3,220,R,ugm-3
14-01-2010,10:00,139,R,ugm-3,71,R,ugm-3,283,R,ugm-3
14-01-2010,11:00,126,R,ugm-3,57,R,ugm-3,250,R,ugm-3
14-01-2010,12:00,106,R,ugm-3,61,R,ugm-3,223,R,ugm-3
14-01-2010,13:00,104,R,ugm-3,59,R,ugm-3,218,R,ugm-3
14-01-2010,14:00,116,R,ugm-3,65,R,ugm-3,243,R,ugm-3
14-01-2010,15:00,123,R,ugm-3,65,R,ugm-3,252,R,ugm-3
14-01-2010,16:00,126,R,ugm-3,65,R,ugm-3,258,R,ugm-3
14-01-2010,17:00,170,R,ugm-3,88,R,ugm-3,348,R,ugm-3
14-01-2010,18:00,173,R,ugm-3,84,R,ugm-3,348,R,ugm-3
14-01-2010,19:00,145,R,ugm-3,80,R,ugm-3,302,R,ugm-3
14-01-2010,20:00,88,R,ugm-3,69,R,ugm-3,202,R,ugm-3
14-01-2010,21:00,54,R,ugm-3,69,R,ugm-3,151,R,ugm-3
14-01-2010,22:00,58,R,ugm-3,67,R,ugm-3,155,R,ugm-3
14-01-2010,23:00,36,R,ugm-3,63,R,ugm-3,118,R,ugm-3
14-01-2010,24:00,24,R,ugm-3,59,R,ugm-3,96,R,ugm-3
15-01-2010,01:00,9,R,ugm-3,46,R,ugm-3,59,R,ugm-3
15-01-2010,02:00,3,R,ugm-3,25,R,ugm-3,29,R,ugm-3
15-01-2010,03:00,1,R,ugm-3,19,R,ugm-3,21,R,ugm-3
15-01-2010,04:00,1,R,ugm-3,17,R,ugm-3,19,R,ugm-3
15-01-2010,05:00,4,R,ugm-3,19,R,ugm-3,25,R,ugm-3
15-01-2010,06:00,9,R,ugm-3,23,R,ugm-3,36,R,ugm-3
15-01-2010,07:00,30,R,ugm-3,32,R,ugm-3,78,R,ugm-3
15-01-2010,08:00,43,R,ugm-3,46,R,ugm-3,111,R,ugm-3
15-01-2010,09:00,45,R,ugm-3,52,R,ugm-3,120,R,ugm-3
15-01-2010,10:00,46,R,ugm-3,48,R,ugm-3,118,R,ugm-3
15-01-2010,11:00,51,R,ugm-3,44,R,ugm-3,122,R,ugm-3
15-01-2010,12:00,45,R,ugm-3,42,R,ugm-3,111,R,ugm-3
15-01-2010,13:00,46,R,ugm-3,40,R,ugm-3,111,R,ugm-3
15-01-2010,14:00,55,R,ugm-3,42,R,ugm-3,126,R,ugm-3
15-01-2010,15:00,54,R,ugm-3,53,R,ugm-3,136,R,ugm-3
15-01-2010,16:00,60,R,ugm-3,63,R,ugm-3,155,R,ugm-3
15-01-2010,17:00,83,R,ugm-3,67,R,ugm-3,193,R,ugm-3
15-01-2010,18:00,49,R,ugm-3,57,R,ugm-3,132,R,ugm-3
15-01-2010,19:00,26,R,ugm-3,46,R,ugm-3,86,R,ugm-3
15-01-2010,20:00,18,R,ugm-3,38,R,ugm-3,65,R,ugm-3
15-01-2010,21:00,13,R,ugm-3,31,R,ugm-3,50,R,ugm-3
15-01-2010,22:00,6,R,ugm-3,17,R,ugm-3,27,R,ugm-3
15-01-2010,23:00,5,R,ugm-3,13,R,ugm-3,21,R,ugm-3
15-01-2010,24:00,5,R,ugm-3,15,R,ugm-3,23,R,ugm-3
16-01-2010,01:00,5,R,ugm-3,13,R,ugm-3,21,R,ugm-3
16-01-2010,02:00,1,R,ugm-3,10,R,ugm-3,11,R,ugm-3
16-01-2010,03:00,1,R,ugm-3,8,R,ugm-3,10,R,ugm-3
16-01-2010,04:00,1,R,ugm-3,8,R,ugm-3,10,R,ugm-3
16-01-2010,05:00,1,R,ugm-3,4,R,ugm-3,6,R,ugm-3
16-01-2010,06:00,3,R,ugm-3,8,R,ugm-3,11,R,ugm-3
16-01-2010,07:00,6,R,ugm-3,8,R,ugm-3,17,R,ugm-3
16-01-2010,08:00,11,R,ugm-3,17,R,ugm-3,34,R,ugm-3
16-01-2010,09:00,13,R,ugm-3,23,R,ugm-3,42,R,ugm-3
16-01-2010,10:00,16,R,ugm-3,23,R,ugm-3,48,R,ugm-3
16-01-2010,11:00,16,R,ugm-3,27,R,ugm-3,52,R,ugm-3
16-01-2010,12:00,21,R,ugm-3,27,R,ugm-3,59,R,ugm-3
16-01-2010,13:00,21,R,ugm-3,25,R,ugm-3,57,R,ugm-3
16-01-2010,14:00,30,R,ugm-3,34,R,ugm-3,80,R,ugm-3
16-01-2010,15:00,33,R,ugm-3,44,R,ugm-3,94,R,ugm-3
16-01-2010,16:00,44,R,ugm-3,50,R,ugm-3,117,R,ugm-3
16-01-2010,17:00,88,R,ugm-3,74,R,ugm-3,208,R,ugm-3
16-01-2010,18:00,99,R,ugm-3,80,R,ugm-3,231,R,ugm-3
16-01-2010,19:00,109,R,ugm-3,76,R,ugm-3,243,R,ugm-3
16-01-2010,20:00,178,R,ugm-3,90,R,ugm-3,361,R,ugm-3
16-01-2010,21:00,169,R,ugm-3,90,R,ugm-3,348,R,ugm-3
16-01-2010,22:00,46,R,ugm-3,71,R,ugm-3,141,R,ugm-3
16-01-2010,23:00,18,R,ugm-3,53,R,ugm-3,80,R,ugm-3
16-01-2010,24:00,21,R,ugm-3,48,R,ugm-3,80,R,ugm-3
17-01-2010,01:00,8,R,ugm-3,29,R,ugm-3,40,R,ugm-3
17-01-2010,02:00,6,R,ugm-3,23,R,ugm-3,32,R,ugm-3
17-01-2010,03:00,1,R,ugm-3,23,R,ugm-3,25,R,ugm-3
17-01-2010,04:00,4,R,ugm-3,21,R,ugm-3,27,R,ugm-3
17-01-2010,05:00,1,R,ugm-3,13,R,ugm-3,15,R,ugm-3
17-01-2010,06:00,1,R,ugm-3,10,R,ugm-3,11,R,ugm-3
17-01-2010,07:00,5,R,ugm-3,11,R,ugm-3,19,R,ugm-3
17-01-2010,08:00,4,R,ugm-3,8,R,ugm-3,13,R,ugm-3
17-01-2010,09:00,8,R,ugm-3,6,R,ugm-3,17,R,ugm-3
17-01-2010,10:00,8,R,ugm-3,17,R,ugm-3,29,R,ugm-3
17-01-2010,11:00,8,R,ugm-3,15,R,ugm-3,27,R,ugm-3
17-01-2010,12:00,10,R,ugm-3,15,R,ugm-3,31,R,ugm-3
17-01-2010,13:00,15,R,ugm-3,25,R,ugm-3,48,R,ugm-3
17-01-2010,14:00,15,R,ugm-3,23,R,ugm-3,46,R,ugm-3
17-01-2010,15:00,19,R,ugm-3,29,R,ugm-3,57,R,ugm-3
17-01-2010,16:00,20,R,ugm-3,42,R,ugm-3,73,R,ugm-3
17-01-2010,17:00,33,R,ugm-3,71,R,ugm-3,120,R,ugm-3
17-01-2010,18:00,18,R,ugm-3,61,R,ugm-3,88,R,ugm-3
17-01-2010,19:00,15,R,ugm-3,52,R,ugm-3,74,R,ugm-3
17-01-2010,20:00,15,R,ugm-3,55,R,ugm-3,78,R,ugm-3
17-01-2010,21:00,18,R,ugm-3,59,R,ugm-3,86,R,ugm-3
17-01-2010,22:00,10,R,ugm-3,52,R,ugm-3,67,R,ugm-3
17-01-2010,23:00,14,R,ugm-3,57,R,ugm-3,78,R,ugm-3
17-01-2010,24:00,11,R,ugm-3,46,R,ugm-3,63,R,ugm-3
18-01-2010,01:00,6,R,ugm-3,36,R,ugm-3,46,R,ugm-3
18-01-2010,02:00,1,R,ugm-3,19,R,ugm-3,21,R,ugm-3
18-01-2010,03:00,0,R,ugm-3,19,R,ugm-3,19,R,ugm-3
18-01-2010,04:00,0,R,ugm-3,17,R,ugm-3,17,R,ugm-3
18-01-2010,05:00,3,R,ugm-3,15,R,ugm-3,19,R,ugm-3
18-01-2010,06:00,10,R,ugm-3,31,R,ugm-3,46,R,ugm-3
18-01-2010,07:00,16,R,ugm-3,31,R,ugm-3,55,R,ugm-3
18-01-2010,08:00,40,R,ugm-3,55,R,ugm-3,117,R,ugm-3
18-01-2010,09:00,49,R,ugm-3,71,R,ugm-3,145,R,ugm-3
18-01-2010,10:00,81,R,ugm-3,80,R,ugm-3,204,R,ugm-3
18-01-2010,11:00,74,R,ugm-3,74,R,ugm-3,187,R,ugm-3
18-01-2010,12:00,94,R,ugm-3,78,R,ugm-3,222,R,ugm-3
18-01-2010,13:00,76,R,ugm-3,80,R,ugm-3,197,R,ugm-3
18-01-2010,14:00,93,R,ugm-3,86,R,ugm-3,227,R,ugm-3
18-01-2010,15:00,106,R,ugm-3,84,R,ugm-3,246,R,ugm-3
18-01-2010,16:00,83,R,ugm-3,80,R,ugm-3,206,R,ugm-3
18-01-2010,17:00,150,R,ugm-3,115,R,ugm-3,344,R,ugm-3
18-01-2010,18:00,100,R,ugm-3,94,R,ugm-3,246,R,ugm-3
18-01-2010,19:00,78,R,ugm-3,86,R,ugm-3,204,R,ugm-3
18-01-2010,20:00,28,R,ugm-3,78,R,ugm-3,120,R,ugm-3
18-01-2010,21:00,60,R,ugm-3,78,R,ugm-3,170,R,ugm-3
18-01-2010,22:00,41,R,ugm-3,74,R,ugm-3,138,R,ugm-3
18-01-2010,23:00,31,R,ugm-3,71,R,ugm-3,118,R,ugm-3
18-01-2010,24:00,45,R,ugm-3,65,R,ugm-3,134,R,ugm-3
19-01-2010,01:00,54,R,ugm-3,63,R,ugm-3,145,R,ugm-3
19-01-2010,02:00,14,R,ugm-3,55,R,ugm-3,76,R,ugm-3
19-01-2010,03:00,26,R,ugm-3,52,R,ugm-3,92,R,ugm-3
19-01-2010,04:00,3,R,ugm-3,34,R,ugm-3,38,R,ugm-3
19-01-2010,05:00,4,R,ugm-3,36,R,ugm-3,42,R,ugm-3
19-01-2010,06:00,11,R,ugm-3,40,R,ugm-3,57,R,ugm-3
19-01-2010,07:00,10,R,ugm-3,38,R,ugm-3,53,R,ugm-3
19-01-2010,08:00,25,R,ugm-3,52,R,ugm-3,90,R,ugm-3
19-01-2010,09:00,73,R,ugm-3,52,R,ugm-3,162,R,ugm-3
19-01-2010,10:00,43,R,ugm-3,48,R,ugm-3,113,R,ugm-3
19-01-2010,11:00,36,R,ugm-3,48,R,ugm-3,103,R,ugm-3
19-01-2010,12:00,31,R,ugm-3,48,R,ugm-3,96,R,ugm-3
19-01-2010,13:00,26,R,ugm-3,48,R,ugm-3,88,R,ugm-3
19-01-2010,14:00,24,R,ugm-3,46,R,ugm-3,82,R,ugm-3
19-01-2010,15:00,24,R,ugm-3,50,R,ugm-3,86,R,ugm-3
19-01-2010,16:00,19,R,ugm-3,46,R,ugm-3,74,R,ugm-3
19-01-2010,17:00,16,R,ugm-3,50,R,ugm-3,74,R,ugm-3
19-01-2010,18:00,18,R,ugm-3,53,R,ugm-3,80,R,ugm-3
19-01-2010,19:00,10,R,ugm-3,44,R,ugm-3,59,R,ugm-3
19-01-2010,20:00,8,R,ugm-3,36,R,ugm-3,48,R,ugm-3
19-01-2010,21:00,6,R,ugm-3,34,R,ugm-3,44,R,ugm-3
19-01-2010,22:00,3,R,ugm-3,25,R,ugm-3,29,R,ugm-3
19-01-2010,23:00,1,R,ugm-3,21,R,ugm-3,23,R,ugm-3
19-01-2010,24:00,1,R,ugm-3,19,R,ugm-3,21,R,ugm-3
20-01-2010,01:00,1,R,ugm-3,13,R,ugm-3,15,R,ugm-3
20-01-2010,02:00,1,R,ugm-3,8,R,ugm-3,10,R,ugm-3
20-01-2010,03:00,1,R,ugm-3,6,R,ugm-3,8,R,ugm-3
20-01-2010,04:00,1,R,ugm-3,8,R,ugm-3,10,R,ugm-3
20-01-2010,05:00,1,R,ugm-3,8,R,ugm-3,10,R,ugm-3
20-01-2010,06:00,5,R,ugm-3,13,R,ugm-3,21,R,ugm-3
20-01-2010,07:00,14,R,ugm-3,23,R,ugm-3,44,R,ugm-3
20-01-2010,08:00,15,R,ugm-3,29,R,ugm-3,52,R,ugm-3
20-01-2010,09:00,21,R,ugm-3,34,R,ugm-3,67,R,ugm-3
20-01-2010,10:00,34,R,ugm-3,40,R,ugm-3,92,R,ugm-3
20-01-2010,11:00,29,R,ugm-3,42,R,ugm-3,86,R,ugm-3
20-01-2010,12:00,35,R,ugm-3,40,R,ugm-3,94,R,ugm-3
20-01-2010,13:00,40,R,ugm-3,46,R,ugm-3,107,R,ugm-3
20-01-2010,14:00,54,R,ugm-3,53,R,ugm-3,136,R,ugm-3
20-01-2010,15:00,65,R,ugm-3,55,R,ugm-3,155,R,ugm-3
20-01-2010,16:00,54,R,ugm-3,57,R,ugm-3,139,R,ugm-3
20-01-2010,17:00,49,R,ugm-3,59,R,ugm-3,134,R,ugm-3
20-01-2010,18:00,70,R,ugm-3,67,R,ugm-3,174,R,ugm-3
20-01-2010,19:00,44,R,ugm-3,61,R,ugm-3,128,R,ugm-3